Tracking 19145 objects as of 26-Apr-2018
HD Live streaming from Space Station
objects crossing your sky now

SL-16 DEB

Track SL-16 DEB now!
10-day predictions


NORAD ID: 23091
Int'l Code: 1994-023E
Perigee: 845.6 km
Apogee: 1,145.6 km
Inclination: 71.0 °
Period: 104.9 minutes
Semi major axis: 7366 km
RCS: 0.085 m2 (small)
Launch date: April 23, 1994
Source: Commonwealth of Independent States (former USSR) (CIS)
Launch site: TYURATAM MISSILE AND SPACE COMPLEX (TTMTR)

Note: This is SATELLITE DEBRIS
aabbcc
Your satellite tracking list
Your tracking list is empty




NASA's NSSDC Master Catalog

Two Line Element Set (TLE):
1 23091U 94023E   18115.11342693  .00000010  00000-0  50634-4 0  9991
2 23091  70.9807 127.4042 0203616 304.6485 110.0749 13.73096702202842
Source of the keplerian elements: AFSPC